TimeCST,TemperatureF,Dew PointF,Humidity,Sea Level PressureIn,VisibilityMPH,Wind Direction,Wind SpeedMPH,Gust SpeedMPH,PrecipitationIn,Events,Conditions,WindDirDegrees,DateUTC
12:53 AM,46.0,41.0,83,30.29,10.0,SE,5.8,-,N/A,,Clear,130,2008-01-05 06:53:00
1:53 AM,46.0,41.0,83,30.28,10.0,ESE,3.5,-,N/A,,Clear,120,2008-01-05 07:53:00
2:53 AM,48.0,43.0,83,30.26,10.0,SE,4.6,-,N/A,,Scattered Clouds,140,2008-01-05 08:53:00
3:18 AM,46.4,42.8,87,30.24,10.0,SE,5.8,-,N/A,,Mostly Cloudy,140,2008-01-05 09:18:00
3:37 AM,46.4,42.8,87,30.24,10.0,SE,3.5,-,N/A,,Mostly Cloudy,130,2008-01-05 09:37:00
3:53 AM,46.9,43.0,86,30.25,10.0,SE,3.5,-,N/A,,Mostly Cloudy,130,2008-01-05 09:53:00
4:53 AM,50.0,45.0,83,30.24,10.0,Calm,Calm,-,N/A,,Overcast,0,2008-01-05 10:53:00
5:53 AM,52.0,46.9,83,30.23,10.0,SE,11.5,-,0.00,,Overcast,130,2008-01-05 11:53:00
6:53 AM,53.1,48.0,83,30.24,10.0,SE,10.4,-,N/A,,Overcast,140,2008-01-05 12:53:00
7:53 AM,53.1,48.9,86,30.23,9.0,SE,10.4,-,N/A,,Overcast,140,2008-01-05 13:53:00
8:53 AM,55.9,51.1,84,30.24,10.0,SE,12.7,-,N/A,,Overcast,140,2008-01-05 14:53:00
9:53 AM,59.0,53.1,81,30.25,10.0,SSE,9.2,-,N/A,,Overcast,150,2008-01-05 15:53:00
10:53 AM,60.1,54.0,80,30.24,10.0,SE,9.2,-,N/A,,Overcast,140,2008-01-05 16:53:00
11:53 AM,62.1,55.9,80,30.20,10.0,SE,11.5,-,0.00,,Mostly Cloudy,140,2008-01-05 17:53:00
12:53 PM,66.0,57.9,75,30.18,10.0,South,9.2,20.7,N/A,,Overcast,170,2008-01-05 18:53:00
1:53 PM,69.1,57.9,68,30.14,10.0,South,10.4,19.6,N/A,,Overcast,170,2008-01-05 19:53:00
2:08 PM,69.8,57.2,64,30.12,10.0,South,12.7,18.4,N/A,,Overcast,180,2008-01-05 20:08:00
2:53 PM,72.0,57.9,61,30.11,10.0,South,12.7,-,N/A,,Overcast,170,2008-01-05 20:53:00
3:53 PM,71.1,55.9,59,30.11,10.0,South,13.8,-,N/A,,Overcast,180,2008-01-05 21:53:00
4:53 PM,70.0,57.0,63,30.11,10.0,SSE,9.2,-,N/A,,Overcast,160,2008-01-05 22:53:00
5:53 PM,68.0,57.9,70,30.12,10.0,SSE,8.1,-,N/A,,Overcast,160,2008-01-05 23:53:00
6:53 PM,68.0,60.1,76,30.13,10.0,SSE,10.4,-,N/A,,Overcast,160,2008-01-06 00:53:00
7:53 PM,64.9,59.0,81,30.14,10.0,SSE,8.1,-,N/A,,Mostly Cloudy,150,2008-01-06 01:53:00
8:06 PM,64.4,59.0,83,30.13,10.0,SSE,10.4,-,N/A,,Mostly Cloudy,150,2008-01-06 02:06:00
8:19 PM,66.2,60.8,83,30.13,10.0,SSE,10.4,-,N/A,,Mostly Cloudy,160,2008-01-06 02:19:00
8:53 PM,64.9,60.1,84,30.14,10.0,South,9.2,-,N/A,,Overcast,170,2008-01-06 02:53:00
9:53 PM,64.9,60.1,84,30.14,10.0,SSE,9.2,-,N/A,,Overcast,160,2008-01-06 03:53:00
10:02 PM,64.4,60.8,88,30.13,10.0,South,8.1,-,N/A,,Overcast,170,2008-01-06 04:02:00
10:37 PM,64.4,60.8,88,30.13,10.0,SSE,8.1,-,N/A,,Overcast,160,2008-01-06 04:37:00
10:53 PM,64.9,60.1,84,30.14,10.0,SSE,6.9,-,N/A,,Overcast,160,2008-01-06 04:53:00
11:53 PM,64.9,60.1,84,30.14,10.0,SSE,6.9,-,N/A,,Overcast,160,2008-01-06 05:53:00